Probability
0 0 0 0 0 0 0 0 0 0 0 0 0 0 0 0 0 0 0 0 0 0 0 0 0 0 0 0 0 0 0 0 0 0 0 0 0 0 0 0 0 0 0 0
0 0 0 0 0 0 0 0 0 0 0 0 0 0 0 0 0 0 0 0 0 0 0 0 0 0 0 0 0 0 0 0 0 0 0 0 0 0 0 0 0 0 0 0
0 0 0 0 0 0 0 0 0 0 0 0 0 0 0 0 0 0 0 0 0 0 0 0 0 0 0 0 0 0 0 0 0 0 0 0 0 0 0 0 0 0 0 0
0 0 0 0 0 0 0 0 0 0 0 0 0 0 0 0 0 0 0 0 0 0 0 0 0 0 0 0 0 0 0 0 0 0 0 0 0 0 0 0 0 0 0 0
0 0 0 0 0 0 0 0 0 0 0 0 0 0 0 0 0 0 0 0 0 0 0 0 0 0 0 0 0 0 0 0 0 0 0 0 0 0 0 0 0 0 0 0
0 0 0 0 0 0 0 0 0 0 0 0 0 0 0 0 0 0 0 0 0 0 0 0 0 0 0 0 0 0 0 0 0 0 0 0 0 0 0 0 0 0 0 0
0 0 0 0 0 0 0 0 0 0 0 0 0 0 0 0 0 0 0 0 0 0 0 0 0 0 0 0 0 0 0 0 0 0 0 0 0 0 0 0 0 0 0 0
0 0 0 0 0 0 0 0 0 0 0 0 0 0 0 0 0 0 0 0 0 0 0 0 0 0 0 0 0 0 0 0 0 0 0 0 0 0 0 0 0 0 0 0
0 0 0 0 0 0 0 0 0 0 0 0 0 0 0 0 0 0 0 0 0 0 0 0 0 0 0 0 0 0 0 0 0 0 0 0 0 0 0 0 0 0 0 0
0 0 0 0 0 0 0 0 0 0 0 0 0 0 0 0 0 0 0 0 0 0 0 0 0 0 0 0 0 0 0 0 0 0 0 0 0 0 0 0 0 0 0 0
0 0 0 0 0 0 0 0 0 0 0 0 0 0 0 0 0 0 0 0 0 0 0 0 0 0 0 0 0 0 0 0 0 0 0 0 0 0 0 0 0 0 0 0
0 0 0 0 0 0 0 0 0 0 0 0 0 0 0 0 0 0 0 0 0 0 0 0 0 0 0 0 0 0 0 0 0 0 0 0 0 0 0 0 0 0 0 0
0 0 0 0 0 0 0 0 0 0 0 0 0 0 0 0 0 0 0 0 0 0 0 0 0 0 0 0 0 0 0 0 0 0 0 0 0 0 0 0 0 0 0 0
0 0 0 0 0 0 0 0 0 0 0 0 0 0 0 0 0 0 0 0 0 0 0 0 0 0 0 0 0 0 0 0 0 0 0 0 0 0 0 0 0 0 0 0
0 0 0 0 0 0 0 0 0 0 0 0 0 0 0 0 0 0 0 0 0 0 0 0 0 0 0 0 0 0 0 0 0 0 0 0 0 0 0 0 0 0 0 0
0 0 0 0 0 0 0 0 0 0 0 0 0 0 0 0 0 0 0 0 0 0 0 0 0 0 0 0 0 0 0 0 0 0 0 0 0 0 0 0 0 0 0 0
0 0 0 0 0 0 0 0 0 0 0 0 0 0 0 0 0 0 0 0 0 0 0 0 0 0 0 0 0 0 0 0 0 0 0 0 0 0 0 0 0 0 0 0
0 0 0 0 0 0 0 0 0 0 0 0 0 0 0 0 0 0 0 0 0 0 0 0 0 0 0 0 0 0 0 0 0 0 0 0 0 0 0 0 0 0 0 0
0 0 0 0 0 0 0 0 0 0 0 0 0 0 0 0 0 0 0 0 0 0 0 0 0 0 0 0 0 0 0 0 0 0 0 0 0 0 0 0 0 0 0 0
0 0 0 0 0 0 0 0 0 0 0 0 0 0 0 0 0 0 0 0 0 0 0 0 0 0 0 0 0 0 0 0 0 0 0 0 0 0 0 0 0 0 0 0
0 0 0 0 0 0 0 0 0 0 0 0 0 0 0 0 0 0 0 0 0 0 0 0 0 0 0 0 0 0 0 0 0 0 0 0 0 0 0 0 0 0 0 0
0 0 0 0 0 0 0 0 0 0 0 0 0 0 0 0 0 0 0 0 0 0 0 0 0 0 0 0 0 0 0 0 0 0 0 0 0 0 0 0 0 0 0 0
0 0 0 0 0 0 0 0 0 0 0 0 0 0 0 0 0 0 0 0 0 0 0 0 0 0 0 0 0 0 0 0 0 0 0 0 0 0 0 0 0 0 0 0
0 0 0 0 0 0 0 0 0 0 0 0 0 0 0 0 0 0 0 0 0 0 0 0 0 0 0 0 0 0 0 0 0 0 0 0 0 0 0 0 0 0 0 0
0 0 0 0 0 0 0 0 0 0 0 0 0 0 0 0 0 0 0 0 0 0 0 0 0 0 0 0 0 0 0 0 0 0 0 0 0 0 0 0 0 0 0 0
0 0 0 0 0 0 0 0 0 0 0 0 0 0 0 0 0 0 0 0 0 0 0 0 0 0 0 0 0 0 0 0 0 0 0 0 0 0 0 0 0 0 0 0
Height
5736 5736 5734 5734 5733 5732 5731 5731 5730 5730 5730 5731 5732 5732 5733 5734 5736 5738 5739 5741 5742 5743 5745 5746 5748 5751 5753 5755 5756 5758 5759 5759 5760 5761 5761 5762 5763 5764 5765 5765 5766 5767 5768 5768
5737 5735 5734 5733 5732 5731 5730 5729 5729 5729 5728 5729 5729 5729 5730 5730 5732 5734 5735 5737 5738 5739 5741 5742 5744 5746 5747 5749 5750 5751 5752 5752 5753 5753 5754 5755 5756 5756 5757 5757 5758 5759 5759 5760
5736 5735 5733 5732 5731 5730 5729 5728 5727 5727 5726 5726 5726 5727 5727 5727 5727 5729 5731 5732 5733 5734 5736 5738 5739 5740 5742 5743 5744 5745 5745 5745 5746 5746 5746 5746 5748 5748 5749 5749 5750 5750 5751 5751
5734 5733 5732 5730 5729 5728 5727 5726 5725 5724 5724 5724 5724 5723 5723 5722 5723 5725 5726 5727 5728 5729 5731 5732 5734 5735 5736 5737 5738 5738 5738 5739 5739 5738 5738 5739 5740 5741 5741 5741 5742 5742 5742 5742
5733 5731 5730 5729 5728 5726 5725 5724 5723 5722 5721 5721 5720 5720 5721 5719 5719 5720 5721 5722 5723 5724 5725 5727 5728 5729 5729 5730 5731 5731 5731 5732 5732 5731 5732 5732 5732 5733 5733 5733 5733 5733 5733 5734
5731 5729 5727 5726 5725 5724 5722 5721 5720 5719 5719 5718 5717 5716 5717 5716 5716 5716 5716 5717 5718 5719 5720 5721 5721 5722 5723 5723 5724 5724 5724 5725 5725 5725 5725 5725 5725 5725 5725 5725 5725 5725 5725 5725
5728 5726 5725 5723 5722 5721 5719 5718 5717 5715 5715 5715 5713 5712 5713 5712 5711 5711 5711 5712 5712 5713 5714 5714 5715 5716 5716 5717 5717 5717 5717 5717 5717 5717 5717 5717 5717 5717 5717 5717 5717 5717 5717 5717
5724 5723 5721 5719 5718 5716 5715 5714 5713 5711 5710 5710 5709 5708 5709 5708 5707 5707 5707 5707 5707 5707 5708 5708 5709 5709 5709 5710 5710 5710 5710 5710 5709 5709 5709 5709 5709 5709 5709 5709 5709 5708 5708 5708
5719 5719 5717 5715 5713 5712 5710 5709 5708 5706 5705 5704 5704 5704 5704 5702 5702 5702 5701 5701 5701 5701 5701 5702 5702 5702 5702 5702 5702 5702 5702 5701 5701 5701 5701 5701 5701 5701 5701 5701 5700 5700 5700 5700
5714 5713 5712 5710 5708 5706 5705 5703 5702 5701 5699 5698 5698 5698 5699 5697 5696 5696 5695 5695 5695 5695 5694 5694 5694 5694 5694 5694 5694 5693 5693 5693 5693 5692 5692 5692 5692 5692 5692 5692 5692 5691 5691 5691
5708 5707 5706 5704 5703 5701 5700 5698 5696 5694 5694 5693 5692 5695 5693 5691 5690 5689 5688 5688 5688 5687 5687 5687 5687 5686 5686 5686 5685 5685 5684 5684 5683 5683 5682 5682 5682 5682 5682 5682 5682 5682 5682 5681
5701 5700 5699 5698 5696 5693 5692 5691 5690 5689 5688 5686 5685 5689 5685 5684 5682 5682 5681 5681 5680 5680 5679 5679 5678 5678 5678 5677 5677 5676 5675 5674 5674 5673 5673 5673 5673 5673 5672 5672 5672 5672 5672 5672
5693 5692 5691 5690 5691 5688 5686 5684 5683 5681 5680 5679 5678 5682 5678 5676 5675 5674 5673 5673 5672 5672 5671 5670 5670 5669 5669 5668 5667 5667 5666 5665 5664 5664 5663 5663 5663 5663 5662 5662 5662 5662 5661 5661
5684 5683 5683 5682 5680 5678 5677 5677 5675 5673 5672 5671 5672 5672 5671 5668 5667 5666 5665 5664 5663 5663 5662 5661 5660 5660 5659 5658 5657 5657 5656 5655 5654 5654 5653 5653 5652 5652 5652 5651 5651 5651 5651 5651
5675 5675 5673 5672 5671 5669 5668 5668 5666 5664 5663 5662 5663 5662 5662 5660 5658 5657 5656 5655 5654 5653 5653 5652 5651 5650 5649 5648 5647 5646 5645 5644 5644 5643 5643 5642 5642 5641 5641 5641 5640 5640 5640 5640
5665 5664 5663 5663 5661 5659 5657 5658 5656 5655 5654 5652 5652 5652 5652 5649 5648 5647 5646 5645 5645 5644 5643 5642 5640 5639 5638 5637 5636 5635 5634 5633 5633 5632 5632 5631 5630 5630 5630 5630 5629 5629 5629 5630
5655 5653 5652 5651 5650 5647 5647 5648 5646 5644 5643 5642 5641 5642 5640 5639 5637 5636 5636 5635 5633 5633 5632 5631 5629 5628 5626 5625 5624 5623 5622 5621 5621 5620 5620 5620 5619 5619 5618 5618 5618 5618 5618 5619
5643 5641 5638 5638 5637 5636 5639 5636 5634 5633 5632 5630 5629 5629 5628 5627 5625 5625 5624 5623 5622 5621 5620 5619 5617 5616 5615 5613 5612 5611 5610 5609 5609 5608 5608 5607 5607 5607 5607 5606 5606 5606 5607 5607
5630 5628 5626 5625 5623 5623 5626 5624 5622 5620 5620 5619 5617 5616 5615 5613 5613 5613 5612 5610 5609 5608 5607 5606 5605 5603 5602 5601 5599 5599 5598 5597 5596 5596 5595 5595 5594 5594 5594 5594 5594 5594 5595 5595
5618 5615 5614 5612 5609 5610 5614 5611 5608 5607 5607 5607 5604 5603 5602 5601 5601 5601 5599 5598 5596 5595 5594 5593 5592 5590 5589 5588 5586 5586 5585 5584 5583 5582 5582 5582 5581 5581 5581 5581 5582 5582 5582 5583
5603 5601 5600 5598 5595 5596 5600 5597 5595 5595 5594 5592 5590 5589 5589 5587 5587 5587 5585 5584 5583 5582 5581 5579 5578 5577 5576 5574 5573 5572 5571 5570 5569 5568 5568 5568 5568 5568 5568 5568 5569 5569 5570 5571
5588 5587 5586 5584 5582 5586 5585 5583 5582 5580 5579 5577 5576 5575 5574 5573 5572 5572 5571 5570 5569 5568 5567 5565 5564 5563 5562 5560 5558 5558 5557 5555 5554 5554 5554 5554 5554 5554 5554 5554 5555 5555 5556 5557
5574 5574 5572 5571 5572 5571 5569 5568 5567 5565 5564 5563 5562 5561 5560 5559 5558 5557 5557 5556 5555 5553 5552 5551 5549 5548 5547 5545 5543 5543 5542 5540 5540 5539 5539 5539 5539 5539 5539 5540 5540 5541 5542 5543
5560 5559 5556 5555 5556 5556 5554 5553 5551 5550 5549 5548 5547 5546 5545 5544 5543 5542 5541 5541 5539 5538 5537 5535 5534 5533 5532 5530 5529 5527 5526 5525 5525 5524 5524 5524 5524 5524 5524 5525 5526 5527 5528 5529
5545 5543 5540 5539 5541 5539 5539 5538 5536 5535 5534 5533 5532 5531 5530 5528 5527 5526 5525 5525 5523 5522 5521 5519 5518 5517 5516 5515 5514 5513 5511 5510 5510 5510 5509 5509 5509 5509 5509 5510 5511 5512 5513 5513
5531 5528 5525 5524 5524 5521 5522 5522 5520 5519 5518 5517 5516 5515 5514 5512 5511 5510 5510 5509 5508 5507 5505 5504 5503 5502 5501 5500 5499 5498 5497 5496 5495 5495 5495 5494 5494 5494 5494 5495 5496 5496 5498 5498
Wind_Speed
9 8 6 6 6 7 6 7 8 9 10 11 12 14 16 17 18 20 20 21 22 23 24 25 26 27 29 29 31 32 33 33 34 34 34 34 34 34 34 36 36 36 36 36
9 8 8 8 8 8 8 8 9 10 11 12 12 13 15 16 17 19 20 20 21 22 24 24 25 26 28 29 30 32 33 34 34 34 34 34 34 34 34 35 35 36 36 37
10 9 10 10 9 9 9 10 10 10 10 11 12 13 14 15 17 19 20 20 21 22 23 24 25 26 27 29 30 31 32 33 34 35 35 35 35 36 36 36 36 37 38 37
11 11 11 11 11 11 10 11 11 12 12 12 13 13 13 15 17 19 20 21 21 22 23 24 25 26 27 28 29 30 31 31 32 33 33 34 34 36 37 37 38 38 39 39
12 12 11 11 11 12 12 12 12 12 12 13 13 14 12 13 15 17 19 20 22 23 23 24 25 26 27 28 28 29 29 29 30 31 32 32 33 33 34 35 36 37 38 38
13 13 13 12 13 13 13 13 13 13 13 13 13 14 13 13 13 15 17 19 20 22 23 24 25 25 26 27 27 27 28 29 29 30 31 32 31 32 33 33 33 34 35 36
15 15 15 15 15 15 15 15 15 15 14 13 13 14 14 13 13 14 16 17 18 20 22 23 24 25 26 27 28 28 29 30 30 31 31 32 33 33 33 33 33 33 34 35
17 16 16 16 16 16 16 16 16 17 16 15 15 15 14 15 15 15 15 17 19 20 21 22 23 25 26 27 28 29 30 31 31 32 33 33 34 34 33 33 33 33 33 33
20 19 18 18 18 17 18 17 18 18 18 17 16 16 16 16 16 17 17 18 19 21 22 24 25 26 27 28 29 30 30 32 32 33 33 34 34 33 33 33 33 33 33 34
21 21 20 20 20 20 20 20 20 20 20 19 18 17 17 18 18 19 20 21 21 22 24 25 26 27 28 29 30 31 32 32 33 34 34 35 35 35 35 35 35 35 35 35
24 24 23 23 22 21 21 21 21 21 21 21 21 19 19 20 20 22 23 23 24 25 26 27 28 29 30 30 31 32 33 34 34 34 35 35 36 37 37 37 36 36 36 36
26 26 25 24 23 23 22 22 22 22 22 22 22 20 20 21 22 23 24 24 25 26 27 28 29 30 31 31 32 33 34 35 35 35 35 36 36 37 38 38 38 38 38 38
27 27 27 26 26 25 25 25 24 25 25 24 24 22 22 22 24 24 24 25 26 26 27 28 29 31 32 32 33 34 34 35 36 36 37 37 38 38 39 39 39 39 39 39
29 29 29 29 29 29 28 28 28 28 28 28 26 25 25 25 25 26 27 27 28 28 28 29 30 31 32 33 33 34 34 35 35 36 37 37 38 38 38 38 38 38 38 38
31 32 32 32 32 32 31 30 31 31 31 31 29 29 28 29 29 29 30 30 30 31 31 31 31 32 33 33 34 35 35 35 36 36 37 37 37 38 38 37 37 37 37 37
35 35 35 35 34 35 35 33 33 34 34 34 33 31 31 32 32 32 32 33 33 33 33 33 34 35 35 35 36 36 37 37 38 38 38 38 38 38 39 39 38 38 38 37
37 38 38 37 37 37 37 35 35 35 35 35 35 34 35 34 34 35 35 35 35 35 35 36 36 36 37 37 38 38 39 39 39 39 39 40 40 40 39 39 39 39 39 38
40 40 40 40 40 40 38 37 37 37 37 38 38 37 38 38 38 38 38 37 37 37 37 37 38 38 39 39 40 40 40 40 40 40 40 40 41 40 40 40 40 40 39 38
41 42 42 43 43 42 39 39 39 40 40 39 40 40 40 40 40 40 39 39 39 38 38 39 40 40 41 41 41 41 41 41 41 41 41 41 42 41 41 41 41 41 40 40
43 43 43 44 45 44 41 41 41 42 42 40 41 41 42 42 42 41 41 41 41 41 41 42 42 42 42 42 43 43 43 43 43 43 43 42 42 42 42 42 41 41 41 40
44 44 45 45 46 46 43 42 42 42 42 42 42 42 43 43 44 43 43 43 43 43 44 44 44 44 44 44 44 44 44 44 44 44 44 44 43 43 43 43 42 42 42 42
45 45 45 45 46 45 43 44 44 44 44 44 43 43 44 44 44 44 45 45 45 45 45 45 45 45 45 46 46 46 45 45 45 45 45 45 45 45 45 45 44 44 43 42
47 46 46 47 47 45 45 45 46 46 46 45 45 45 45 45 45 46 47 47 47 47 47 48 48 48 48 48 47 47 46 46 46 46 46 46 46 46 46 46 45 44 44 44
48 48 49 49 47 46 46 47 47 48 49 49 49 48 48 48 48 48 48 49 49 49 49 49 50 50 49 48 48 47 47 47 46 46 47 46 46 46 46 46 46 46 45 45
47 48 50 51 48 48 49 49 50 51 52 52 52 51 51 51 51 51 50 50 49 49 49 49 49 49 49 48 48 47 47 47 47 47 46 46 45 45 45 45 45 45 46 46
47 48 49 49 48 50 50 50 51 52 52 52 52 52 51 52 52 51 51 51 50 50 49 49 49 49 48 48 47 47 48 47 47 46 46 46 46 45 45 45 45 45 45 45
Wind_Direction
339 336 335 328 314 302 293 282 273 264 258 252 250 247 245 243 244 244 245 245 245 244 246 245 243 242 243 245 247 249 252 254 256 256 255 255 255 256 256 257 257 258 258 259
334 329 327 322 317 303 293 286 279 269 262 259 256 251 248 244 244 244 243 245 245 243 243 245 244 245 246 248 250 252 255 256 257 257 257 257 257 258 258 259 259 259 260 261
330 327 324 318 310 303 294 288 282 276 265 260 257 254 249 247 244 242 241 243 245 244 244 246 247 247 249 251 253 255 257 258 258 259 260 259 259 261 261 262 262 262 263 263
327 326 322 315 309 304 297 293 285 279 273 267 263 260 255 253 248 244 244 244 244 246 247 247 247 248 250 252 254 256 257 259 259 259 261 261 261 262 262 263 263 264 264 264
320 321 318 314 309 307 303 297 289 284 279 274 269 268 263 258 251 246 245 245 245 245 246 246 247 248 249 252 254 256 258 259 260 260 261 263 263 263 264 265 265 265 264 264
310 311 311 309 308 306 303 299 293 288 285 280 275 272 269 267 260 251 247 246 246 246 248 248 248 248 249 251 254 257 258 258 259 261 262 263 263 264 265 266 267 266 265 265
307 306 305 304 302 302 300 297 292 290 288 286 279 274 271 270 264 256 251 249 248 248 249 249 250 251 251 252 255 258 259 259 260 261 262 262 262 264 266 267 267 268 268 267
304 302 300 299 300 299 296 293 291 289 288 285 281 280 276 273 269 264 259 254 252 251 252 253 252 252 253 254 257 259 261 261 261 261 261 262 262 263 264 266 267 268 268 268
300 300 299 297 296 295 292 289 287 286 285 281 277 277 275 273 269 264 261 259 257 256 255 255 254 255 257 257 258 260 261 262 263 262 261 262 262 263 264 266 267 268 268 268
295 295 296 296 294 292 289 287 286 285 283 281 277 274 274 271 268 266 264 263 262 260 259 259 258 258 259 260 260 260 261 262 263 264 263 262 262 264 265 266 267 268 269 269
292 292 293 292 292 291 289 286 284 283 281 281 280 277 275 274 271 268 266 265 264 264 263 262 261 261 261 261 262 263 263 263 264 265 265 264 265 265 266 267 267 268 269 269
290 289 289 288 287 286 285 284 282 281 279 279 280 281 277 274 272 271 269 268 267 266 264 264 264 263 263 263 264 265 265 265 265 265 266 266 266 267 268 268 268 269 269 270
288 287 286 284 284 283 282 281 278 277 276 276 277 278 276 273 271 271 271 270 268 268 267 267 266 266 266 266 266 266 266 266 265 266 266 266 266 267 268 268 269 269 270 270
284 285 285 284 283 282 279 277 275 275 276 275 275 275 275 274 273 271 271 271 272 272 271 270 270 269 269 269 269 268 267 267 266 266 267 268 267 267 267 268 269 269 269 270
280 282 282 281 281 280 278 276 275 275 276 275 274 272 273 273 273 272 271 272 273 273 273 272 272 272 272 271 270 269 269 268 268 268 268 268 268 267 267 268 268 269 269 268
279 279 279 279 279 278 276 276 276 275 275 274 273 271 271 271 271 272 273 273 273 273 273 273 273 273 273 273 272 271 270 270 270 270 270 269 269 269 269 269 268 269 268 268
279 279 279 278 278 277 276 277 276 276 274 272 272 272 271 271 272 271 271 273 273 273 273 273 274 273 274 274 274 273 272 271 270 270 271 271 271 270 270 269 269 269 268 267
278 279 279 279 277 276 279 277 276 275 274 274 272 273 272 272 272 272 272 273 273 273 274 274 275 274 274 274 274 274 273 272 271 271 271 271 271 271 271 270 269 268 267 267
276 277 277 278 278 278 278 278 277 275 274 274 274 274 273 272 272 273 274 273 273 273 274 275 275 275 275 275 275 275 273 272 272 272 271 271 271 271 271 270 269 268 266 265
276 276 276 276 277 277 279 278 277 276 276 275 274 274 275 274 274 274 273 274 274 274 274 275 276 276 276 275 275 275 274 273 273 272 272 271 271 271 270 269 268 267 266 266
275 275 275 276 276 276 277 277 276 276 276 275 275 275 275 275 274 274 273 273 273 274 274 275 276 276 276 276 276 276 275 274 273 272 272 271 270 270 270 269 268 267 266 266
274 274 275 274 275 276 276 274 274 274 275 276 277 277 276 276 275 273 273 273 273 274 275 276 276 277 277 277 277 277 276 274 273 272 271 270 269 268 268 267 266 266 265 265
272 273 273 273 274 275 274 273 273 274 275 276 276 276 276 276 275 274 274 274 275 275 275 276 276 277 276 277 277 276 276 275 273 272 271 270 269 268 267 266 265 265 264 264
272 272 271 272 273 272 272 272 272 273 274 275 276 276 276 276 276 275 275 274 275 275 276 275 275 276 276 276 276 276 275 275 274 273 272 271 270 268 267 266 265 265 265 265
272 271 271 272 272 271 270 270 271 272 273 275 275 275 275 276 276 275 275 275 274 275 276 276 275 275 275 275 275 275 275 275 275 274 273 271 270 269 267 266 266 266 265 266
272 272 271 271 271 270 270 270 270 272 273 274 274 274 274 274 275 275 274 274 274 274 275 275 275 275 275 274 274 274 274 275 275 274 273 272 271 269 268 267 267 267 267 266